Location: Lafig�re
(44.4503°N, 4.0357°E)
Time: 15:15:09
(UTC+00:00)

Vanguard 2 Rocket - Pass Details

Date: 28 January 2021
Orbit: 554 x 3325 km, 32.9° (Epoch: 06 March)

Event Time Altitude Azimuth Distance (km) Brightness Sun altitude
Rises 18:21:05 0° 270° (W) 5,489 12.6 -16.7°
Reaches altitude 10° 18:26:11 10° 258° (WSW) 3,937 11.4 -17.6°
Maximum altitude 18:33:04 22° 213° (SSW) 2,345 9.4 -18.8°
Drops below altitude 10° 18:37:51 10° 163° (SSE) 2,611 9.1 -19.7°
Enters shadow 18:39:41 - 151° (SSE) 3,054 9.4 -20.0°
Sets 18:40:28 0° 147° (SSE) 3,277 - -20.2°
